The Rock, GA

11:25 AM EDT on August 26, 2016 (GMT -0400)
Thomaston-Upson County

Weather History for KOPN - April, 2013

Change the Weather History Date:

Friday, April 26, 2013

  Actual Average (KFFC) Record (KFFC)
Temperature  
Mean Temperature 60 °F 63 °F  
Max Temperature 77 °F 77 °F 83 °F (2014)
Min Temperature 42 °F 50 °F 36 °F (2013)
Degree Days  
Heating Degree Days 6 3  
Month to date heating degree days 154  
Since 1 July heating degree days 2906  
Cooling Degree Days 0 2  
Month to date cooling degree days 23  
Year to date cooling degree days 28  
Growing Degree Days 10 (Base 50)    
Moisture  
Dew Point 45 °F    
Average Humidity 56    
Maximum Humidity 81    
Minimum Humidity 41    
Precipitation  
Precipitation 0.00 in 0.13 in 0.62 in (2005)
Month to date precipitation 3.48  
Year to date precipitation 17.69  
Sea Level Pressure  
Sea Level Pressure 30.31 in    
Wind  
Wind Speed 5 mph (East)    
Max Wind Speed 13 mph    
Max Gust Speed 18 mph    
Visibility 10 miles    
Events      
T = Trace of Precipitation, MM = Missing Value Source: NWS Daily Summary

Daily Weather History Graph

Daily Weather History Graph

Search for Another Location

Airport or City:

Trip Planner

Search our weather history database for the weather conditions in past years. The results will help you decide how hot, cold, wet, or windy it might be!

Date:

Astronomy

Apr. 26, 2013 Rise Set
Actual Time 6:54 AM EDT 8:15 PM EDT
Civil Twilight 6:28 AM EDT 8:41 PM EDT
Nautical Twilight 5:57 AM EDT 9:12 PM EDT
Astronomical Twilight 5:25 AM EDT 9:45 PM EDT
Moon 9:32 PM EDT 7:23 AM EDT
Length of Visible Light 14h 13m
Length of Day
13h 21m
Full, 99% of the Moon is Illuminated
Apr 26
Full
May 2
Last Quarter
May 9
New
May 18
First Quarter
May 25
Full

Hourly Weather History & Observations

Time (EDT) Temp. Windchill Dew Point Humidity Pressure Visibility Wind Dir Wind Speed Gust Speed Precip Events Conditions
12:15 AM 53.6 °F - 33.8 °F 47% 30.31 in 10.0 mi North 4.6 mph - N/A   Clear
12:35 AM 51.8 °F - 35.6 °F 54% 30.31 in 10.0 mi North 3.5 mph - N/A   Clear
12:55 AM 51.8 °F - 35.6 °F 54% 30.31 in 10.0 mi North 3.5 mph - N/A   Clear
1:15 AM 51.8 °F - 35.6 °F 54% 30.31 in 10.0 mi North 3.5 mph - N/A   Clear
1:35 AM 50.0 °F - 35.6 °F 58% 30.31 in 10.0 mi Calm Calm - N/A   Clear
1:55 AM 48.2 °F - 35.6 °F 62% 30.31 in 10.0 mi Calm Calm - N/A   Clear
2:15 AM 50.0 °F - 35.6 °F 58% 30.30 in 10.0 mi Calm Calm - N/A   Clear
2:35 AM 48.2 °F - 35.6 °F 62% 30.29 in 10.0 mi North 4.6 mph - N/A   Clear
2:55 AM 48.2 °F - 35.6 °F 62% 30.29 in 10.0 mi North 5.8 mph - N/A   Clear
3:15 AM 50.0 °F - 35.6 °F 58% 30.28 in 10.0 mi North 4.6 mph - N/A   Clear
3:35 AM 48.2 °F - 35.6 °F 62% 30.28 in 10.0 mi North 5.8 mph - N/A   Clear
3:55 AM 48.2 °F - 35.6 °F 62% 30.28 in 10.0 mi North 5.8 mph - N/A   Clear
4:15 AM 46.4 °F 45.2 °F 35.6 °F 66% 30.28 in 10.0 mi North 3.5 mph - N/A   Clear
4:35 AM 46.4 °F 44.3 °F 35.6 °F 66% 30.29 in 10.0 mi North 4.6 mph - N/A   Clear
4:55 AM 46.4 °F 44.3 °F 35.6 °F 66% 30.29 in 10.0 mi North 4.6 mph - N/A   Clear
5:15 AM 46.4 °F 45.2 °F 35.6 °F 66% 30.29 in 10.0 mi North 3.5 mph - N/A   Clear
5:35 AM 44.6 °F 42.2 °F 35.6 °F 71% 30.30 in 10.0 mi North 4.6 mph - N/A   Clear
5:55 AM 44.6 °F 40.7 °F 37.4 °F 76% 30.29 in 10.0 mi NNE 6.9 mph - N/A   Clear
6:15 AM 44.6 °F 40.7 °F 37.4 °F 76% 30.30 in 10.0 mi North 6.9 mph - N/A   Clear
6:35 AM 44.6 °F 41.4 °F 37.4 °F 76% 30.30 in 10.0 mi NNE 5.8 mph - N/A   Clear
6:55 AM 42.8 °F 40.1 °F 37.4 °F 81% 30.31 in 10.0 mi North 4.6 mph - N/A   Clear
7:15 AM 42.8 °F 39.3 °F 37.4 °F 81% 30.32 in 10.0 mi NNE 5.8 mph - N/A   Clear
7:35 AM 44.6 °F 42.2 °F 37.4 °F 76% 30.33 in 10.0 mi NNE 4.6 mph - N/A   Clear
7:55 AM 46.4 °F 43.5 °F 37.4 °F 71% 30.34 in 10.0 mi NNE 5.8 mph - N/A   Clear
8:15 AM 48.2 °F - 37.4 °F 66% 30.33 in 10.0 mi NE 9.2 mph - N/A   Clear
8:35 AM 51.8 °F - 39.2 °F 62% 30.34 in 10.0 mi NE 6.9 mph - N/A   Clear
8:55 AM 53.6 °F - 39.2 °F 58% 30.34 in 10.0 mi ENE 8.1 mph 18.4 mph N/A   Clear
9:15 AM 55.4 °F - 41.0 °F 58% 30.36 in 10.0 mi ENE 8.1 mph 16.1 mph N/A   Clear
9:35 AM 59.0 °F - 42.8 °F 55% 30.36 in 10.0 mi East 8.1 mph - N/A   Clear
9:55 AM 59.0 °F - 42.8 °F 55% 30.36 in 10.0 mi East 10.4 mph 17.3 mph N/A   Clear
10:15 AM 60.8 °F - 42.8 °F 52% 30.36 in 10.0 mi East 11.5 mph 17.3 mph N/A   Clear
10:35 AM 62.6 °F - 44.6 °F 52% 30.36 in 10.0 mi East 10.4 mph 16.1 mph N/A   Clear
10:55 AM 64.4 °F - 46.4 °F 52% 30.36 in 10.0 mi ESE 12.7 mph - N/A   Clear
11:15 AM 64.4 °F - 46.4 °F 52% 30.36 in 10.0 mi ESE 9.2 mph - N/A   Clear
11:35 AM 66.2 °F - 46.4 °F 49% 30.37 in 10.0 mi ESE 6.9 mph - N/A   Clear
11:55 AM 68.0 °F - 46.4 °F 46% 30.37 in 10.0 mi East 8.1 mph - N/A   Clear
12:15 PM 69.8 °F - 48.2 °F 46% 30.37 in 10.0 mi ESE 3.5 mph - N/A   Clear
12:35 PM 69.8 °F - 48.2 °F 46% 30.36 in 10.0 mi SE 8.1 mph - N/A   Clear
12:55 PM 73.4 °F - 50.0 °F 44% 30.36 in 10.0 mi SE 8.1 mph - N/A   Clear
1:15 PM 73.4 °F - 50.0 °F 44% 30.36 in 10.0 mi ESE 5.8 mph - N/A   Clear
1:35 PM 73.4 °F - 50.0 °F 44% 30.36 in 10.0 mi SE 5.8 mph - N/A   Clear
1:55 PM 73.4 °F - 51.8 °F 47% 30.35 in 10.0 mi East 6.9 mph - N/A   Clear
2:15 PM 75.2 °F - 50.0 °F 41% 30.35 in 10.0 mi East 8.1 mph - N/A   Clear
2:35 PM 75.2 °F - 51.8 °F 44% 30.34 in 10.0 mi ESE 9.2 mph - N/A   Clear
2:55 PM 75.2 °F - 50.0 °F 41% 30.33 in 10.0 mi SSE 5.8 mph - N/A   Clear
3:15 PM 77.0 °F - 51.8 °F 41% 30.32 in 10.0 mi SE 5.8 mph - N/A   Clear
3:35 PM 77.0 °F - 53.6 °F 44% 30.31 in 10.0 mi South 9.2 mph - N/A   Clear
3:55 PM 77.0 °F - 51.8 °F 41% 30.31 in 10.0 mi SSE 3.5 mph - N/A   Clear
4:15 PM 77.0 °F - 51.8 °F 41% 30.29 in 10.0 mi South 4.6 mph - N/A   Clear
4:35 PM 77.0 °F - 51.8 °F 41% 30.29 in 10.0 mi South 5.8 mph - N/A   Clear
4:55 PM 77.0 °F - 53.6 °F 44% 30.29 in 10.0 mi SSW 4.6 mph - N/A   Clear
5:15 PM 77.0 °F - 51.8 °F 41% 30.29 in 10.0 mi Calm Calm - N/A   Clear
5:35 PM 77.0 °F - 51.8 °F 41% 30.28 in 10.0 mi ESE 5.8 mph - N/A   Clear
5:55 PM 77.0 °F - 53.6 °F 44% 30.29 in 10.0 mi South 6.9 mph - N/A   Clear
6:15 PM 77.0 °F - 51.8 °F 41% 30.28 in 10.0 mi South 4.6 mph - N/A   Clear
6:35 PM 75.2 °F - 51.8 °F 44% 30.29 in 10.0 mi South 3.5 mph - N/A   Clear
6:55 PM 77.0 °F - 51.8 °F 41% 30.30 in 10.0 mi South 3.5 mph - N/A   Clear
7:15 PM 77.0 °F - 51.8 °F 41% 30.31 in 10.0 mi SSW 3.5 mph - N/A   Clear
7:35 PM 73.4 °F - 53.6 °F 50% 30.30 in 10.0 mi South 4.6 mph - N/A   Clear
7:55 PM 69.8 °F - 53.6 °F 56% 30.29 in 10.0 mi Calm Calm - N/A   Clear
8:15 PM 68.0 °F - 53.6 °F 60% 30.28 in 10.0 mi Calm Calm - N/A   Clear
8:35 PM 68.0 °F - 53.6 °F 60% 30.27 in 10.0 mi ESE 5.8 mph - N/A   Clear
8:55 PM 68.0 °F - 53.6 °F 60% 30.28 in 10.0 mi ENE 5.8 mph - N/A   Clear
9:15 PM 68.0 °F - 53.6 °F 60% 30.28 in 10.0 mi East 5.8 mph - N/A   Clear
9:35 PM 68.0 °F - 53.6 °F 60% 30.28 in 10.0 mi East 5.8 mph - N/A   Clear
9:55 PM 68.0 °F - 53.6 °F 60% 30.28 in 10.0 mi ESE 5.8 mph - N/A   Clear
10:15 PM 64.4 °F - 53.6 °F 68% 30.28 in 10.0 mi ESE 4.6 mph - N/A   Clear
10:35 PM 68.0 °F - 53.6 °F 60% 30.28 in 10.0 mi ESE 5.8 mph - N/A   Clear
10:55 PM 66.2 °F - 53.6 °F 64% 30.29 in 10.0 mi ESE 4.6 mph - N/A   Clear
11:15 PM 64.4 °F - 53.6 °F 68% 30.29 in 10.0 mi East 4.6 mph - N/A   Clear
11:35 PM 64.4 °F - 51.8 °F 64% 30.29 in 10.0 mi East 5.8 mph - N/A   Clear
11:55 PM 62.6 °F - 51.8 °F 68% 30.30 in 10.0 mi East 3.5 mph - N/A   Clear